This is the latest recevied weather packets stored in our database for station/object N9CQL. If no packets are shown the sender has not sent any weather packets the latest 10 day(s).
| Time | Temp. | Humidity | Pressure | Rain* | Wind** | Luminosity | Snow |
|---|---|---|---|---|---|---|---|
| 1778084321 | 14.44° C | 37% | 1012.8 hPa | 0 mm | - | 740 W/m² | - |
| 1778084018 | 12.78° C | 44% | 1012.7 hPa | 0 mm | - | 686 W/m² | - |
| 1778083716 | 12.78° C | 39% | 1012.9 hPa | 0 mm | - | 483 W/m² | - |
| 1778083412 | 13.33° C | 39% | 1012.7 hPa | 0 mm | - | 385 W/m² | - |
| 1778083111 | 12.78° C | 41% | 1012.9 hPa | 0 mm | - | 380 W/m² | - |
| 1778082807 | 13.33° C | 38% | 1012.9 hPa | 0 mm | - | 272 W/m² | - |
| 1778081679 | 12.78° C | 41% | 1012.9 hPa | 0 mm | - | 244 W/m² | - |
| 1778081377 | 12.78° C | 40% | 1012.9 hPa | 0 mm | - | 246 W/m² | - |
| 1778081074 | 12.78° C | 41% | 1012.9 hPa | 0 mm | - | 242 W/m² | - |
| 1778080772 | 12.78° C | 40% | 1012.9 hPa | 0 mm | - | 258 W/m² | - |
| 1778080469 | 11.67° C | 38% | 1013.2 hPa | 0 mm | - | 296 W/m² | - |
| 1778080167 | 12.78° C | 40% | 1012.9 hPa | 0 mm | - | 294 W/m² | - |
| 1778079862 | 12.22° C | 39% | 1012.8 hPa | 0 mm | - | 206 W/m² | - |
| 1778079560 | 11.67° C | 38% | 1012.8 hPa | 0 mm | - | 206 W/m² | - |
| 1778079256 | 12.22° C | 40% | 1013.1 hPa | 0 mm | - | 190 W/m² | - |
| 1778078953 | 12.22° C | 42% | 1013 hPa | 0 mm | - | 189 W/m² | - |
| 1778078650 | 12.22° C | 43% | 1013.2 hPa | 0 mm | - | 208 W/m² | - |
| 1778078349 | 12.22° C | 41% | 1013 hPa | 0 mm | - | 206 W/m² | - |
| 1778078045 | 12.22° C | 41% | 1013 hPa | 0 mm | - | 230 W/m² | - |
| 1778077743 | 12.22° C | 48% | 1012.8 hPa | 0 mm | - | 178 W/m² | - |
| 1778077441 | 11.67° C | 49% | 1012.8 hPa | 0 mm | - | 147 W/m² | - |
| 1778077139 | 11.11° C | 50% | 1013 hPa | 0 mm | - | 141 W/m² | - |
| 1778076836 | 11.67° C | 44% | 1012.9 hPa | 0 mm | - | 136 W/m² | - |
| 1778076534 | 10.56° C | 45% | 1013 hPa | 0 mm | - | 246 W/m² | - |
| 1778076231 | 10.56° C | 43% | 1013 hPa | 0 mm | - | 165 W/m² | - |
* Rain latest hour (hover to see other rain measurements)
** Current wind speed in m/s (hover to see current wind gust speed)